This is the latest recevied weather packets stored in our database for station/object KM4KBD. If no packets are shown the sender has not sent any weather packets the latest 10 day(s).
| Time | Temp. | Humidity | Pressure | Rain* | Wind** | Luminosity | Snow |
|---|---|---|---|---|---|---|---|
| 1777923172 | 25° C | 48% | 1016.5 hPa | 0 mm | - | 640 W/m² | - |
| 1777922871 | 24.44° C | 53% | 1016.4 hPa | 0 mm | - | 659 W/m² | - |
| 1777922568 | 24.44° C | 48% | 1016.6 hPa | 0 mm | - | 672 W/m² | - |
| 1777922267 | 24.44° C | 51% | 1016.6 hPa | 0 mm | - | 686 W/m² | - |
| 1777921963 | 24.44° C | 49% | 1016.7 hPa | 0 mm | - | 686 W/m² | - |
| 1777921659 | 24.44° C | 52% | 1016.6 hPa | 0 mm | - | 678 W/m² | - |
| 1777921356 | 24.44° C | 51% | 1016.4 hPa | 0 mm | - | 686 W/m² | - |
| 1777921052 | 23.89° C | 52% | 1016.6 hPa | 0 mm | - | 691 W/m² | - |
| 1777920749 | 23.89° C | 50% | 1016.5 hPa | 0 mm | - | 700 W/m² | - |
| 1777920445 | 23.89° C | 52% | 1016.8 hPa | 0 mm | - | 681 W/m² | - |
| 1777920141 | 23.89° C | 55% | 1016.8 hPa | 0 mm | - | 708 W/m² | - |
| 1777919837 | 23.33° C | 52% | 1016.7 hPa | 0 mm | - | 715 W/m² | - |
| 1777919534 | 23.33° C | 53% | 1016.9 hPa | 0 mm | - | 723 W/m² | - |
| 1777919233 | 22.78° C | 54% | 1016.8 hPa | 0 mm | - | 725 W/m² | - |
| 1777918929 | 22.78° C | 54% | 1016.7 hPa | 0 mm | - | 730 W/m² | - |
| 1777918627 | 22.78° C | 54% | 1016.8 hPa | 0 mm | - | 734 W/m² | - |
| 1777918324 | 22.78° C | 54% | 1016.9 hPa | 0 mm | - | 738 W/m² | - |
| 1777918023 | 22.78° C | 54% | 1016.9 hPa | 0 mm | - | 742 W/m² | - |
| 1777917721 | 22.22° C | 55% | 1016.9 hPa | 0 mm | - | 745 W/m² | - |
| 1777917418 | 22.22° C | 55% | 1017 hPa | 0 mm | - | 747 W/m² | - |
| 1777917115 | 22.22° C | 58% | 1017 hPa | 0 mm | - | 748 W/m² | - |
| 1777916813 | 22.22° C | 59% | 1017.1 hPa | 0 mm | - | 752 W/m² | - |
| 1777916509 | 22.22° C | 56% | 1017 hPa | 0 mm | - | 753 W/m² | - |
| 1777916206 | 22.22° C | 56% | 1016.9 hPa | 0 mm | - | 754 W/m² | - |
| 1777915904 | 21.67° C | 59% | 1017.1 hPa | 0 mm | - | 755 W/m² | - |
* Rain latest hour (hover to see other rain measurements)
** Current wind speed in m/s (hover to see current wind gust speed)